Location: Milano
(45.4670°N, 9.2000°E)
Time: 20:47:18
(UTC+02:00)

ISS - Pass Details

Date: 19 May 2021
Orbit: 417 x 422 km, 51.6° (Epoch: 14 June)

Event Time Altitude Azimuth Distance (km) Brightness Sun altitude
Rises 00:29:08 0° 292° (WNW) 2,368 0.5 -23.8°
Reaches altitude 10° 00:31:25 10° 304° (NW) 1,505 -0.4 -23.9°
Maximum altitude 00:34:24 28° 6° (N) 818 -1.7 -24.0°
Enters shadow 00:36:06 19° 52° (NE) 1,091 -1.4 -24.0°
